This is the latest recevied weather packets stored in our database for station/object KB1QVF. If no packets are shown the sender has not sent any weather packets the latest 10 day(s).
| Time | Temp. | Humidity | Pressure | Rain* | Wind** | Luminosity | Snow |
|---|---|---|---|---|---|---|---|
| 1777832718 | 10.56° C | 41% | 1008.9 hPa | 0 mm | - | 195 W/m² | - |
| 1777832415 | 11.11° C | 39% | 1008.7 hPa | 0 mm | - | 245 W/m² | - |
| 1777832112 | 11.11° C | 40% | 1008.4 hPa | 0 mm | - | 398 W/m² | - |
| 1777831808 | 10.56° C | 40% | 1008.7 hPa | 0 mm | - | 486 W/m² | - |
| 1777831506 | 10.56° C | 40% | 1008.7 hPa | 0 mm | - | 570 W/m² | - |
| 1777831203 | 10.56° C | 41% | 1008.6 hPa | 0 mm | - | 247 W/m² | - |
| 1777830900 | 10.56° C | 41% | 1008.6 hPa | 0 mm | - | 208 W/m² | - |
| 1777830596 | 10.56° C | 41% | 1008.8 hPa | 0 mm | - | 330 W/m² | - |
| 1777830295 | 10.56° C | 41% | 1008.8 hPa | 0 mm | - | 242 W/m² | - |
| 1777829990 | 10.56° C | 41% | 1008.5 hPa | 0 mm | - | 214 W/m² | - |
| 1777829686 | 10° C | 42% | 1008.3 hPa | 0 mm | - | 394 W/m² | - |
| 1777829383 | 10° C | 42% | 1008.7 hPa | 0 mm | - | 330 W/m² | - |
| 1777829080 | 10° C | 42% | 1008.7 hPa | 0 mm | - | 298 W/m² | - |
| 1777828777 | 10° C | 44% | 1008.6 hPa | 0 mm | - | 258 W/m² | - |
| 1777828473 | 10° C | 44% | 1008.4 hPa | 0 mm | - | 204 W/m² | - |
| 1777828171 | 10.56° C | 42% | 1008.5 hPa | 0 mm | - | 201 W/m² | - |
| 1777827867 | 10.56° C | 42% | 1008.5 hPa | 0 mm | - | 327 W/m² | - |
| 1777827564 | 10.56° C | 42% | 1008.5 hPa | 0 mm | - | 243 W/m² | - |
| 1777827262 | 10.56° C | 41% | 1008.5 hPa | 0 mm | - | 260 W/m² | - |
| 1777826957 | 10.56° C | 41% | 1008.6 hPa | 0 mm | - | 330 W/m² | - |
| 1777826655 | 10.56° C | 41% | 1008.8 hPa | 0 mm | - | 510 W/m² | - |
| 1777826351 | 10° C | 43% | 1008.5 hPa | 0 mm | - | 642 W/m² | - |
| 1777826049 | 10° C | 44% | 1008.7 hPa | 0 mm | - | 286 W/m² | - |
| 1777825745 | 9.44° C | 46% | 1008.7 hPa | 0 mm | - | 266 W/m² | - |
| 1777825443 | 10° C | 49% | 1008.5 hPa | 0 mm | - | 225 W/m² | - |
* Rain latest hour (hover to see other rain measurements)
** Current wind speed in m/s (hover to see current wind gust speed)